NORTHEAST SUFFOLK  -  Air Quality Alert Air Quality Alert        NORTHERN NASSAU  -  Air Quality Alert Air Quality Alert        NORTHERN QUEENS  -  Air Quality Alert Air Quality Alert        NORTHWEST SUFFOLK  -  Air Quality Alert Air Quality Alert        SOUTHEAST SUFFOLK  -  Air Quality Alert Air Quality Alert        SOUTHERN NASSAU  -  Air Quality Alert Air Quality Alert        SOUTHERN QUEENS  -  Air Quality Alert Air Quality Alert        SOUTHWEST SUFFOLK  -  Air Quality Alert Air Quality Alert      

Active alerts

Northern Queens
  Details for Northern Queens Air Quality Alert
Southern Queens
  Details for Southern Queens Air Quality Alert
Northern Nassau
  Details for Northern Nassau Air Quality Alert
Southern Nassau
  Details for Southern Nassau Air Quality Alert
Northwest Suffolk
  Details for Northwest Suffolk Air Quality Alert
Southwest Suffolk
  Details for Southwest Suffolk Air Quality Alert
Northeast Suffolk
  Details for Northeast Suffolk Air Quality Alert
Southeast Suffolk
  Details for Southeast Suffolk Air Quality Alert


WXM80 ListenWXM80 Stop

You find our weather info also at:

UK Metoffice

WeatherCloud

Weather Underground

Northeastern Weather Network

AWEKAS

Citizen Weather Observer Program (CWOP)

HAMweather, WeatherForYou, PWS Weather


Weather Underground History page Text

Daily Summary for April 3, 2017 Units:  Metric    English   Both
« Previous Day
Next Day »
Daily Weekly Monthly Yearly Custom
  High: Low: Average:
Temperature: 16.6 °C 3.4 °C 9.9 °C
Dew Point: 6.8 °C 0.3 °C 2.8 °C
Humidity: 82 % 39 % 63 %
Wind Speed: 20.1 km/h 0 km/h 3.2 km/h
Wind Gust: 29.6 km/h - -
Wind:- - SSE
Pressure: 1019.5 hPa 1011.4 hPa -
Precipitation: 0 mm    
Historical Graphs
 
 
Tabular Data for April 3, 2017
Time Temperature Dew Point Pressure Wind Wind Speed Wind Gust Humidity Rainfall Rate (Hourly)
00:01 8.9 °C 2 °C 1017.8 hPa Calm   1.9 km/h 62 % 0 mm
00:06 8.7 °C 1.8 °C 1017.8 hPa West 1 km/h 5.6 km/h 62 % 0 mm
00:11 8.5 °C 1.6 °C 1017.8 hPa Calm   1.9 km/h 62 % 0 mm
00:16 8.3 °C 1.7 °C 1017.8 hPa Calm     63 % 0 mm
00:21 8.2 °C 2 °C 1017.5 hPa Calm   1.9 km/h 65 % 0 mm
00:26 8 °C 2.1 °C 1017.5 hPa Calm   1.9 km/h 66 % 0 mm
00:31 7.7 °C 2 °C 1017.5 hPa Calm     67 % 0 mm
00:36 7.6 °C 1.8 °C 1017.5 hPa West 1.1 km/h 1.9 km/h 67 % 0 mm
00:41 7.4 °C 1.7 °C 1017.5 hPa Calm     67 % 0 mm
00:46 7.2 °C 1.7 °C 1017.5 hPa Calm     68 % 0 mm
00:51 7 °C 1.7 °C 1017.5 hPa Calm   1.9 km/h 69 % 0 mm
00:56 6.8 °C 1.5 °C 1017.5 hPa West 1.6 km/h 3.7 km/h 69 % 0 mm
01:01 6.6 °C 1.5 °C 1017.5 hPa West 1.1 km/h 5.6 km/h 70 % 0 mm
01:06 6.5 °C 1.4 °C 1017.5 hPa West 0.2 km/h 1.9 km/h 70 % 0 mm
01:08 6.4 °C 1.4 °C 1017.5 hPa West 0.2 km/h 1.9 km/h 70 % 0 mm
01:13 6.4 °C 1.3 °C 1017.5 hPa Calm   1.9 km/h 70 % 0 mm
01:18 6.3 °C 1.3 °C 1017.8 hPa Calm     70 % 0 mm
01:23 6.2 °C 1.2 °C 1017.8 hPa Calm     70 % 0 mm
01:28 6.2 °C 1.3 °C 1018.2 hPa West 1.4 km/h 3.7 km/h 71 % 0 mm
01:33 6.1 °C 1.2 °C 1017.8 hPa Calm     71 % 0 mm
01:38 5.9 °C 1.3 °C 1017.8 hPa Calm     72 % 0 mm
01:43 5.8 °C 1.2 °C 1017.8 hPa Calm     72 % 0 mm
01:48 5.7 °C 1.2 °C 1017.8 hPa Calm     73 % 0 mm
01:53 5.6 °C 1.3 °C 1017.8 hPa Calm     74 % 0 mm
01:58 5.4 °C 1.1 °C 1017.8 hPa West 0.5 km/h 1.9 km/h 74 % 0 mm
02:03 5.3 °C 1.2 °C 1017.5 hPa Calm     75 % 0 mm
02:08 5.2 °C 1.1 °C 1017.5 hPa Calm     75 % 0 mm
02:13 5.1 °C 1 °C 1017.5 hPa Calm     75 % 0 mm
02:18 4.9 °C 0.9 °C 1017.2 hPa Calm   1.9 km/h 75 % 0 mm
02:23 4.8 °C 0.9 °C 1017.2 hPa West 1.4 km/h 1.9 km/h 76 % 0 mm
02:28 4.7 °C 1.1 °C 1017.2 hPa West 1.3 km/h 3.7 km/h 77 % 0 mm
02:33 4.7 °C 1 °C 1017.5 hPa Calm     77 % 0 mm
02:38 4.7 °C 1 °C 1017.8 hPa West 1.6 km/h 3.7 km/h 77 % 0 mm
02:44 4.7 °C 1 °C 1017.8 hPa West 0.5 km/h 1.9 km/h 77 % 0 mm
02:49 4.7 °C 1 °C 1017.8 hPa West 1.6 km/h 3.7 km/h 77 % 0 mm
02:54 4.7 °C 0.8 °C 1017.8 hPa West 0.5 km/h 3.2 km/h 76 % 0 mm
02:59 4.7 °C 0.8 °C 1017.8 hPa West 0.5 km/h 1.9 km/h 76 % 0 mm
03:04 4.8 °C 0.9 °C 1017.8 hPa West 3.4 km/h 5.6 km/h 76 % 0 mm
03:09 4.8 °C 1.1 °C 1017.8 hPa West 1.6 km/h 3.7 km/h 77 % 0 mm
03:14 4.8 °C 1.1 °C 1017.5 hPa West 0.2 km/h 1.9 km/h 77 % 0 mm
03:19 4.8 °C 1.1 °C 1017.8 hPa Calm     77 % 0 mm
03:24 4.8 °C 1.1 °C 1017.8 hPa West 0.8 km/h 1.9 km/h 77 % 0 mm
03:29 4.8 °C 1.1 °C 1017.8 hPa West 1.8 km/h 3.7 km/h 77 % 0 mm
03:34 4.7 °C 1.1 °C 1017.8 hPa West 0.5 km/h 1.9 km/h 77 % 0 mm
03:39 4.7 °C 1 °C 1017.8 hPa Calm     77 % 0 mm
03:44 4.7 °C 1 °C 1017.5 hPa Calm     77 % 0 mm
03:49 4.7 °C 1 °C 1017.5 hPa West 1.6 km/h 3.7 km/h 77 % 0 mm
03:54 4.7 °C 0.8 °C 1017.5 hPa West 0.6 km/h 1.9 km/h 76 % 0 mm
03:59 4.7 °C 1.1 °C 1017.5 hPa West 1.4 km/h 1.9 km/h 77 % 0 mm
04:04 4.8 °C 1.1 °C 1017.5 hPa West 1.4 km/h 1.9 km/h 77 % 0 mm
04:09 4.8 °C 0.9 °C 1017.2 hPa West 1 km/h 1.9 km/h 76 % 0 mm
04:14 4.8 °C 0.9 °C 1017.2 hPa West 1.8 km/h 3.7 km/h 76 % 0 mm
04:19 4.8 °C 0.9 °C 1017.2 hPa Calm     76 % 0 mm
04:24 4.8 °C 0.9 °C 1017.2 hPa Calm     76 % 0 mm
04:29 4.8 °C 0.9 °C 1017.2 hPa Calm     76 % 0 mm
04:34 4.8 °C 0.9 °C 1017.5 hPa West 1.3 km/h 1.9 km/h 76 % 0 mm
04:39 4.7 °C 0.8 °C 1017.5 hPa West 1.9 km/h 5.6 km/h 76 % 0 mm
04:44 4.6 °C 0.7 °C 1017.5 hPa Calm     76 % 0 mm
04:49 4.6 °C 0.7 °C 1017.5 hPa Calm   3.7 km/h 76 % 0 mm
04:54 4.6 °C 0.7 °C 1017.2 hPa Calm     76 % 0 mm
05:00 4.5 °C 0.6 °C 1017.5 hPa Calm     76 % 0 mm
05:05 4.4 °C 0.8 °C 1017.5 hPa Calm     77 % 0 mm
05:10 4.3 °C 0.7 °C 1017.5 hPa Calm     77 % 0 mm
05:15 4.3 °C 0.6 °C 1017.5 hPa Calm     77 % 0 mm
05:20 4.2 °C 0.6 °C 1017.5 hPa Calm     77 % 0 mm
05:25 4.2 °C 0.5 °C 1017.8 hPa Calm     77 % 0 mm
05:30 4.1 °C 0.6 °C 1017.8 hPa Calm     78 % 0 mm
05:35 4 °C 0.5 °C 1017.8 hPa Calm     78 % 0 mm
05:40 3.9 °C 0.4 °C 1017.8 hPa Calm     78 % 0 mm
05:45 3.8 °C 0.3 °C 1017.8 hPa Calm     78 % 0 mm
05:50 3.8 °C 0.4 °C 1017.8 hPa Calm     79 % 0 mm
05:55 3.7 °C 0.4 °C 1017.8 hPa Calm     79 % 0 mm
06:00 3.7 °C 0.3 °C 1017.8 hPa Calm     79 % 0 mm
06:05 3.6 °C 0.3 °C 1017.8 hPa Calm     79 % 0 mm
06:10 3.6 °C 0.4 °C 1017.8 hPa Calm     80 % 0 mm
06:15 3.5 °C 0.4 °C 1017.8 hPa Calm     80 % 0 mm
06:20 3.5 °C 0.4 °C 1018.2 hPa Calm     80 % 0 mm
06:25 3.4 °C 0.3 °C 1018.2 hPa Calm     80 % 0 mm
06:30 3.4 °C 0.3 °C 1018.2 hPa Calm     80 % 0 mm
06:35 3.4 °C 0.3 °C 1018.2 hPa Calm     80 % 0 mm
06:40 3.4 °C 0.4 °C 1017.8 hPa Calm     81 % 0 mm
06:45 3.4 °C 0.3 °C 1018.2 hPa Calm     80 % 0 mm
06:50 3.4 °C 0.3 °C 1018.2 hPa Calm     80 % 0 mm
06:55 3.5 °C 0.6 °C 1018.2 hPa Calm     81 % 0 mm
07:00 3.6 °C 0.6 °C 1018.2 hPa Calm     81 % 0 mm
07:05 3.6 °C 0.7 °C 1018.5 hPa Calm     81 % 0 mm
07:10 3.7 °C 0.7 °C 1018.5 hPa Calm     81 % 0 mm
07:15 3.7 °C 0.6 °C 1018.5 hPa Calm     80 % 0 mm
07:20 3.8 °C 0.7 °C 1018.8 hPa Calm     80 % 0 mm
07:25 3.8 °C 0.9 °C 1018.8 hPa West 1 km/h 3.7 km/h 81 % 0 mm
07:30 3.9 °C 1 °C 1018.8 hPa WSW 0.8 km/h 3.7 km/h 81 % 0 mm
07:35 4.1 °C 1.1 °C 1019.2 hPa WSW 0.6 km/h 3.7 km/h 81 % 0 mm
07:40 4.3 °C 1.3 °C 1019.2 hPa Calm     81 % 0 mm
07:45 4.5 °C 1.5 °C 1019.2 hPa WSW 0.2 km/h 1.9 km/h 81 % 0 mm
07:51 4.7 °C 1.7 °C 1019.2 hPa WSW 0.3 km/h 1.9 km/h 81 % 0 mm
07:56 4.9 °C 2.1 °C 1019.2 hPa WSW 1.8 km/h 5.6 km/h 82 % 0 mm
08:01 5.2 °C 2.2 °C 1019.2 hPa WSW 0.3 km/h 1.9 km/h 81 % 0 mm
08:06 5.6 °C 2.4 °C 1019.2 hPa WSW 0.2 km/h 1.9 km/h 80 % 0 mm
08:11 5.9 °C 2.6 °C 1019.5 hPa WSW 2.7 km/h 3.7 km/h 79 % 0 mm
08:16 6.5 °C 2.6 °C 1019.5 hPa WSW 3.7 km/h 5.6 km/h 76 % 0 mm
08:21 7 °C 2.7 °C 1019.5 hPa WSW 2.9 km/h 5.6 km/h 74 % 0 mm
08:26 7.4 °C 2.7 °C 1019.2 hPa WSW 0.3 km/h 3.7 km/h 72 % 0 mm
08:31 7.7 °C 3.1 °C 1019.2 hPa Calm   1.9 km/h 73 % 0 mm
08:36 7.8 °C 3.1 °C 1019.2 hPa WSW 0.3 km/h 3.2 km/h 72 % 0 mm
08:41 8.2 °C 3.2 °C 1019.2 hPa WSW 0.6 km/h 3.7 km/h 71 % 0 mm
08:46 8.5 °C 2.9 °C 1019.2 hPa WSW 0.6 km/h 1.9 km/h 68 % 0 mm
08:51 8.8 °C 3.4 °C 1019.2 hPa WSW 0.5 km/h 1.9 km/h 69 % 0 mm
08:54 9.1 °C 3.1 °C 1019.2 hPa WSW 2.1 km/h 4.8 km/h 66 % 0 mm
08:59 9.5 °C 2.3 °C 1019.2 hPa WSW 0.6 km/h 1.9 km/h 61 % 0 mm
09:04 10.1 °C 3.8 °C 1019.2 hPa Calm     65 % 0 mm
09:09 10.7 °C 4.4 °C 1019.2 hPa WSW 0.5 km/h 1.9 km/h 65 % 0 mm
09:14 11.3 °C 4.5 °C 1019.2 hPa West 1 km/h 3.7 km/h 63 % 0 mm
09:19 11.7 °C 5.3 °C 1018.8 hPa West 0.8 km/h 3.7 km/h 65 % 0 mm
09:24 11.9 °C 5.1 °C 1018.8 hPa West 0.5 km/h 1.9 km/h 63 % 0 mm
09:29 12.1 °C 5.4 °C 1018.8 hPa West 0.5 km/h 3.7 km/h 64 % 0 mm
09:34 12.3 °C 5.3 °C 1018.8 hPa West 0.5 km/h 1.9 km/h 62 % 0 mm
09:39 12.5 °C 4.7 °C 1018.8 hPa NNW 2.1 km/h 3.7 km/h 59 % 0 mm
09:44 12.4 °C 4.8 °C 1018.8 hPa ENE 3.4 km/h 5.6 km/h 60 % 0 mm
09:49 11.9 °C 4.9 °C 1018.8 hPa ENE 3.9 km/h 5.6 km/h 62 % 0 mm
09:54 11.6 °C 5 °C 1018.8 hPa ENE 3.5 km/h 5.6 km/h 64 % 0 mm
10:00 10.9 °C 4.6 °C 1018.8 hPa ENE 3.4 km/h 5.6 km/h 65 % 0 mm
10:05 10.7 °C 5 °C 1018.8 hPa ENE 0.8 km/h 1.9 km/h 68 % 0 mm
10:10 10.3 °C 4.2 °C 1018.8 hPa ENE 1.9 km/h 3.7 km/h 66 % 0 mm
10:15 10.1 °C 4.6 °C 1018.8 hPa ENE 0.5 km/h 1.9 km/h 69 % 0 mm
10:19 10 °C 4.3 °C 1018.8 hPa ENE 1.1 km/h 3.7 km/h 68 % 0 mm
10:24 9.9 °C 4.3 °C 1018.8 hPa ENE 1 km/h 1.9 km/h 68 % 0 mm
10:29 9.8 °C 4.2 °C 1018.8 hPa ENE 0.5 km/h 1.9 km/h 68 % 0 mm
10:34 10 °C 4.8 °C 1018.8 hPa Calm     70 % 0 mm
10:39 10 °C 4.8 °C 1018.5 hPa ENE 1.4 km/h 3.7 km/h 70 % 0 mm
10:44 10.1 °C 4.4 °C 1018.8 hPa ENE 0.3 km/h 1.9 km/h 68 % 0 mm
10:49 10.2 °C 4.2 °C 1018.8 hPa ENE 2.1 km/h 5.6 km/h 66 % 0 mm
10:54 10.4 °C 4.6 °C 1018.8 hPa Calm   1.9 km/h 67 % 0 mm
10:59 10.7 °C 3.7 °C 1018.8 hPa ENE 1 km/h 1.9 km/h 62 % 0 mm
11:04 11.2 °C 5.3 °C 1018.5 hPa ENE 0.5 km/h 3.2 km/h 67 % 0 mm
11:09 12.2 °C 5.8 °C 1018.5 hPa NE 0.8 km/h 1.9 km/h 65 % 0 mm
11:14 12.5 °C 4.7 °C 1018.5 hPa ENE 4.8 km/h 7.4 km/h 59 % 0 mm
11:19 12.4 °C 4.4 °C 1018.5 hPa NE 3.1 km/h 5.6 km/h 58 % 0 mm
11:24 12.4 °C 3.7 °C 1018.5 hPa NE 0.6 km/h 1.9 km/h 55 % 0 mm
11:29 12.6 °C 4 °C 1018.5 hPa ENE 2.6 km/h 3.7 km/h 56 % 0 mm
11:34 12.6 °C 5 °C 1018.5 hPa NE 0.6 km/h 5.6 km/h 60 % 0 mm
11:39 12.4 °C 4.9 °C 1018.5 hPa NE 1.3 km/h 5.6 km/h 60 % 0 mm
11:44 12.4 °C 4.4 °C 1018.5 hPa Calm   3.7 km/h 58 % 0 mm
11:49 12.8 °C 5 °C 1018.5 hPa NNE 1.8 km/h 3.7 km/h 59 % 0 mm
11:54 13.4 °C 4.8 °C 1018.2 hPa NE 2.6 km/h 5.6 km/h 56 % 0 mm
12:00 13.7 °C 4.6 °C 1018.2 hPa ENE 3.9 km/h 5.6 km/h 54 % 0 mm
12:05 13.6 °C 4.4 °C 1018.2 hPa NNE 5.5 km/h 9.3 km/h 54 % 0 mm
12:10 13.7 °C 4.3 °C 1018.2 hPa NNE 5.6 km/h 7.4 km/h 53 % 0 mm
12:15 13.9 °C 4.7 °C 1017.8 hPa North 3.5 km/h 5.6 km/h 54 % 0 mm
12:20 14 °C 4.6 °C 1017.5 hPa NE 3.2 km/h 5.6 km/h 53 % 0 mm
12:25 14.1 °C 4.9 °C 1017.5 hPa NNE 4 km/h 5.6 km/h 54 % 0 mm
12:30 13.9 °C 4.5 °C 1017.5 hPa NE 4.7 km/h 13 km/h 53 % 0 mm
12:35 13.8 °C 5.2 °C 1017.5 hPa NE 3.2 km/h 3.7 km/h 56 % 0 mm
12:40 13.6 °C 4.4 °C 1017.5 hPa NE 1.1 km/h 4.8 km/h 54 % 0 mm
12:45 13.6 °C 5.2 °C 1017.5 hPa NE 3.1 km/h 5.6 km/h 57 % 0 mm
12:50 13.9 °C 5.2 °C 1017.2 hPa NNE 3.4 km/h 5.6 km/h 56 % 0 mm
12:55 14.4 °C 4.7 °C 1017.2 hPa ENE 5.5 km/h 9.3 km/h 52 % 0 mm
13:00 14.6 °C 6.1 °C 1017.2 hPa NNE 5 km/h 7.4 km/h 57 % 0 mm
13:05 15.2 °C 5.9 °C 1017.2 hPa NNE 5.3 km/h 7.4 km/h 54 % 0 mm
13:10 15.7 °C 5.8 °C 1017.2 hPa NE 3.2 km/h 9.3 km/h 52 % 0 mm
13:15 15.6 °C 5.7 °C 1017.2 hPa North 4.5 km/h 5.6 km/h 52 % 0 mm
13:21 15.4 °C 5.6 °C 1016.8 hPa NE 6.6 km/h 13 km/h 52 % 0 mm
13:26 14.9 °C 5.9 °C 1016.8 hPa North 9 km/h 11.1 km/h 55 % 0 mm
13:31 14.8 °C 6.8 °C 1016.8 hPa NNE 0.5 km/h 5.6 km/h 59 % 0 mm
13:36 14.4 °C 5.7 °C 1016.8 hPa ENE 5.8 km/h 8 km/h 56 % 0 mm
13:41 14 °C 6.3 °C 1016.8 hPa NNE 5.3 km/h 7.4 km/h 60 % 0 mm
13:46 14.3 °C 6.7 °C 1016.8 hPa NE 3.9 km/h 7.4 km/h 60 % 0 mm
13:51 14.6 °C 5.6 °C 1016.8 hPa ENE 7.4 km/h 11.1 km/h 55 % 0 mm
13:56 14.6 °C 5.6 °C 1016.8 hPa ENE 1.8 km/h 5.6 km/h 55 % 0 mm
14:01 14.6 °C 5.9 °C 1016.8 hPa NE 2.6 km/h 5.6 km/h 56 % 0 mm
14:06 14.6 °C 6.1 °C 1016.5 hPa East 1.6 km/h 7.4 km/h 57 % 0 mm
14:11 14.8 °C 4.8 °C 1016.5 hPa South 3.1 km/h 18.5 km/h 51 % 0 mm
14:16 15.4 °C 3.6 °C 1016.5 hPa SSE 14.2 km/h 27.8 km/h 45 % 0 mm
14:21 15.8 °C 2.9 °C 1016.5 hPa SSE 20.1 km/h 29.6 km/h 42 % 0 mm
14:27 15.9 °C 3.7 °C 1016.5 hPa South 7.1 km/h 11.1 km/h 44 % 0 mm
14:32 16.4 °C 3.8 °C 1016.5 hPa SSE 5.3 km/h 14.8 km/h 43 % 0 mm
14:37 16.6 °C 3.9 °C 1016.5 hPa South 11.3 km/h 18.5 km/h 43 % 0 mm
14:42 16.4 °C 3.2 °C 1016.5 hPa SSW 7.9 km/h 16.7 km/h 41 % 0 mm
14:47 16.5 °C 3.2 °C 1016.1 hPa South 4.7 km/h 9.3 km/h 41 % 0 mm
14:52 16.6 °C 3.2 °C 1016.1 hPa SSE 11.9 km/h 22.2 km/h 41 % 0 mm
14:57 16.3 °C 2.7 °C 1016.1 hPa SSE 10.6 km/h 19.3 km/h 40 % 0 mm
15:02 16.4 °C 3.8 °C 1015.8 hPa SSE 10.8 km/h 19.3 km/h 43 % 0 mm
15:07 16.3 °C 3.1 °C 1015.8 hPa SE 8 km/h 11.3 km/h 41 % 0 mm
15:13 16.3 °C 2.7 °C 1015.8 hPa SSE 7.4 km/h 19.3 km/h 40 % 0 mm
15:18 16.1 °C 3.5 °C 1015.8 hPa South 5.5 km/h 16.1 km/h 43 % 0 mm
15:23 16.2 °C 2.9 °C 1015.8 hPa SSE 10.8 km/h 18.5 km/h 41 % 0 mm
15:28 16.1 °C 3.2 °C 1015.5 hPa SSW 7.6 km/h 14.5 km/h 42 % 0 mm
15:33 16.2 °C 3.2 °C 1015.8 hPa SSW 9 km/h 11.3 km/h 42 % 0 mm
15:38 16.3 °C 3 °C 1015.5 hPa SSE 6.1 km/h 14.8 km/h 41 % 0 mm
15:43 16.2 °C 2.9 °C 1015.5 hPa SSW 4 km/h 14.8 km/h 41 % 0 mm
15:48 16 °C 2.7 °C 1015.5 hPa WSW 3.5 km/h 18.5 km/h 41 % 0 mm
15:53 16.1 °C 3.2 °C 1015.5 hPa SSW 7.7 km/h 18.5 km/h 42 % 0 mm
15:54 16.2 °C 2.9 °C 1015.5 hPa SW 10.1 km/h 18.5 km/h 41 % 0 mm
15:59 16.1 °C 3.2 °C 1015.5 hPa SSW 8.7 km/h 18.5 km/h 42 % 0 mm
16:04 16.1 °C 3.2 °C 1015.5 hPa SSE 6 km/h 9.7 km/h 42 % 0 mm
16:09 16.1 °C 3.5 °C 1015.1 hPa South 3.9 km/h 11.1 km/h 43 % 0 mm
16:14 16.2 °C 3.3 °C 1015.1 hPa WSW 9 km/h 18.5 km/h 42 % 0 mm
16:19 16.1 °C 2.1 °C 1015.1 hPa South 9.3 km/h 12.9 km/h 39 % 0 mm
16:24 15.8 °C 2.6 °C 1015.1 hPa South 10.3 km/h 19.3 km/h 41 % 0 mm
16:29 15.8 °C 3.2 °C 1014.8 hPa South 9 km/h 11.3 km/h 43 % 0 mm
16:34 15.8 °C 2.9 °C 1014.8 hPa SSW 3.9 km/h 11.1 km/h 42 % 0 mm
16:39 15.6 °C 2.4 °C 1014.8 hPa SSE 10 km/h 18.5 km/h 41 % 0 mm
16:44 15.3 °C 2.8 °C 1014.8 hPa SE 9.8 km/h 22.5 km/h 43 % 0 mm
16:49 15.1 °C 1.9 °C 1014.8 hPa South 10.9 km/h 18.5 km/h 41 % 0 mm
16:54 14.8 °C 2.3 °C 1014.8 hPa South 9.8 km/h 22.2 km/h 43 % 0 mm
16:59 14.8 °C 2.7 °C 1014.4 hPa SE 11.4 km/h 20.4 km/h 44 % 0 mm
17:04 14.8 °C 2.6 °C 1014.4 hPa SSW 10.3 km/h 20.4 km/h 44 % 0 mm
17:09 14.8 °C 2.6 °C 1014.4 hPa SSW 6.9 km/h 16.7 km/h 44 % 0 mm
17:14 14.8 °C 2.3 °C 1014.4 hPa SSW 6.9 km/h 16.7 km/h 43 % 0 mm
17:19 14.7 °C 2.6 °C 1014.4 hPa South 10 km/h 14.8 km/h 44 % 0 mm
17:24 14.4 °C 2.9 °C 1014.4 hPa SSE 10.3 km/h 16.7 km/h 46 % 0 mm
17:26 14.4 °C 2.9 °C 1014.4 hPa South 8.4 km/h 14.8 km/h 46 % 0 mm
17:31 14.1 °C 2.6 °C 1014.4 hPa South 12.7 km/h 18.5 km/h 46 % 0 mm
17:36 13.8 °C 2.7 °C 1014.4 hPa South 4.3 km/h 7.4 km/h 47 % 0 mm
17:41 13.7 °C 2.6 °C 1014.4 hPa ESE 9.2 km/h 13 km/h 47 % 0 mm
17:46 13.4 °C 2.7 °C 1014.1 hPa South 10 km/h 16.7 km/h 48 % 0 mm
17:51 13.3 °C 3.1 °C 1014.4 hPa SSE 3.5 km/h 9.3 km/h 50 % 0 mm
17:56 13.3 °C 3.3 °C 1014.4 hPa South 5.8 km/h 13 km/h 51 % 0 mm
18:01 13.2 °C 3.2 °C 1014.4 hPa SSE 3.7 km/h 5.6 km/h 51 % 0 mm
18:06 13 °C 3.4 °C 1014.4 hPa South 8.7 km/h 16.7 km/h 52 % 0 mm
18:11 12.8 °C 3.4 °C 1014.8 hPa SSW 11.4 km/h 18.5 km/h 53 % 0 mm
18:16 12.6 °C 3.8 °C 1014.4 hPa SSE 4.3 km/h 8 km/h 55 % 0 mm
18:21 12.5 °C 3.7 °C 1014.4 hPa SSE 8.2 km/h 14.8 km/h 55 % 0 mm
18:26 12.3 °C 3.8 °C 1014.4 hPa South 6.1 km/h 11.1 km/h 56 % 0 mm
18:31 12.1 °C 3.8 °C 1014.4 hPa SSW 4.8 km/h 29.6 km/h 57 % 0 mm
18:36 11.9 °C 3.9 °C 1014.4 hPa South 8 km/h 16.7 km/h 58 % 0 mm
18:41 11.8 °C 3.8 °C 1014.4 hPa South 4.3 km/h 11.1 km/h 58 % 0 mm
18:46 11.7 °C 3.9 °C 1014.4 hPa SSE 4.5 km/h 11.1 km/h 59 % 0 mm
18:51 11.6 °C 4.1 °C 1014.4 hPa South 8.2 km/h 18.5 km/h 60 % 0 mm
18:56 11.4 °C 4.2 °C 1014.4 hPa South 5.1 km/h 14.8 km/h 61 % 0 mm
19:01 11.3 °C 4.1 °C 1014.4 hPa South 3.1 km/h 13 km/h 61 % 0 mm
19:06 11.2 °C 3.9 °C 1014.4 hPa South 3.5 km/h 11.1 km/h 61 % 0 mm
19:11 11.1 °C 4.1 °C 1014.4 hPa South 5.3 km/h 11.1 km/h 62 % 0 mm
19:16 11.1 °C 4.1 °C 1014.1 hPa SSE 5.3 km/h 18.5 km/h 62 % 0 mm
19:21 11 °C 4 °C 1014.1 hPa SSE 9.3 km/h 16.7 km/h 62 % 0 mm
19:26 10.9 °C 4.2 °C 1013.8 hPa SSE 5.6 km/h 11.3 km/h 63 % 0 mm
19:31 10.9 °C 4.2 °C 1013.8 hPa SE 4.8 km/h 7.4 km/h 63 % 0 mm
19:36 10.8 °C 4.3 °C 1013.8 hPa South 3.4 km/h 7.4 km/h 64 % 0 mm
19:41 10.8 °C 4.3 °C 1013.8 hPa SSW 6.9 km/h 13 km/h 64 % 0 mm
19:46 10.8 °C 4.2 °C 1013.8 hPa South 9.5 km/h 13 km/h 64 % 0 mm
19:51 10.7 °C 4.4 °C 1013.8 hPa SSE 5.5 km/h 9.3 km/h 65 % 0 mm
19:57 10.7 °C 4.3 °C 1013.8 hPa SSE 6 km/h 16.7 km/h 65 % 0 mm
20:02 10.7 °C 4.1 °C 1013.8 hPa SSW 2.9 km/h 13 km/h 64 % 0 mm
20:07 10.7 °C 3.9 °C 1013.8 hPa South 2.9 km/h 5.6 km/h 63 % 0 mm
20:12 10.7 °C 3.9 °C 1013.8 hPa SSE 4.7 km/h 11.1 km/h 63 % 0 mm
20:17 10.7 °C 3.7 °C 1013.4 hPa SSE 4.5 km/h 8 km/h 62 % 0 mm
20:22 10.7 °C 3.7 °C 1013.4 hPa SSW 6.6 km/h 13 km/h 62 % 0 mm
20:27 10.7 °C 3.7 °C 1013.4 hPa South 6.8 km/h 8 km/h 62 % 0 mm
20:32 10.7 °C 3.7 °C 1013.1 hPa SSW 8.2 km/h 14.5 km/h 62 % 0 mm
20:37 10.7 °C 3.7 °C 1013.4 hPa South 4.8 km/h 7.4 km/h 62 % 0 mm
20:42 10.6 °C 3.6 °C 1013.4 hPa South 5 km/h 11.1 km/h 62 % 0 mm
20:47 10.7 °C 3.9 °C 1013.4 hPa SSW 3.1 km/h 7.4 km/h 63 % 0 mm
20:52 10.6 °C 3.8 °C 1013.4 hPa South 8 km/h 19.3 km/h 63 % 0 mm
20:57 10.6 °C 3.8 °C 1013.4 hPa South 5.1 km/h 11.1 km/h 63 % 0 mm
21:02 10.6 °C 3.6 °C 1013.8 hPa South 4.8 km/h 12.9 km/h 62 % 0 mm
21:03 10.6 °C 3.6 °C 1013.8 hPa South 3.7 km/h 7.4 km/h 62 % 0 mm
21:08 10.6 °C 3.6 °C 1013.8 hPa South 2.4 km/h 6.4 km/h 62 % 0 mm
21:13 10.7 °C 3.4 °C 1013.8 hPa SSE 3.5 km/h 9.3 km/h 61 % 0 mm
21:18 10.7 °C 3.4 °C 1013.4 hPa SSE 6.8 km/h 9.7 km/h 61 % 0 mm
21:23 10.7 °C 3.4 °C 1013.4 hPa South 1.1 km/h 6.4 km/h 61 % 0 mm
21:28 10.7 °C 3.2 °C 1013.4 hPa SSE 4.2 km/h 9.3 km/h 60 % 0 mm
21:33 10.7 °C 3.2 °C 1013.4 hPa SE 3.7 km/h 5.6 km/h 60 % 0 mm
21:38 10.7 °C 3 °C 1013.4 hPa SSE 3.7 km/h 11.1 km/h 59 % 0 mm
21:43 10.7 °C 3 °C 1013.1 hPa SSE 3.1 km/h 7.4 km/h 59 % 0 mm
21:48 10.7 °C 3.2 °C 1013.8 hPa South 5.6 km/h 8 km/h 60 % 0 mm
21:53 10.7 °C 3.2 °C 1013.4 hPa SSE 1.8 km/h 13 km/h 60 % 0 mm
21:58 10.7 °C 3.2 °C 1013.1 hPa SSE 4.8 km/h 8 km/h 60 % 0 mm
22:03 10.7 °C 3.2 °C 1013.4 hPa SSE 1.8 km/h 5.6 km/h 60 % 0 mm
22:08 10.7 °C 3.4 °C 1013.1 hPa SSE 2.4 km/h 5.6 km/h 61 % 0 mm
22:13 10.6 °C 3.2 °C 1013.4 hPa SSE 2.1 km/h 5.6 km/h 60 % 0 mm
22:18 10.6 °C 3.2 °C 1013.1 hPa South 0.5 km/h 5.6 km/h 60 % 0 mm
22:23 10.6 °C 3.2 °C 1013.1 hPa South 1.9 km/h 4.8 km/h 60 % 0 mm
22:28 10.6 °C 2.9 °C 1013.1 hPa SSE 3.4 km/h 4.8 km/h 59 % 0 mm
22:33 10.6 °C 2.7 °C 1013.1 hPa SE 3.1 km/h 7.4 km/h 58 % 0 mm
22:38 10.6 °C 2.7 °C 1013.4 hPa SSE 1.4 km/h 7.4 km/h 58 % 0 mm
22:43 10.6 °C 2.4 °C 1013.1 hPa SSE 0.2 km/h   57 % 0 mm
22:48 10.7 °C 2.5 °C 1013.1 hPa SE 1.9 km/h 7.4 km/h 57 % 0 mm
22:53 10.7 °C 2.2 °C 1013.1 hPa SSE 2.6 km/h 5.6 km/h 56 % 0 mm
22:58 10.7 °C 2.5 °C 1013.1 hPa SSE 2.4 km/h 4.8 km/h 57 % 0 mm
23:03 10.7 °C 2.2 °C 1012.8 hPa SE 4.8 km/h 5.6 km/h 56 % 0 mm
23:05 10.7 °C 2.2 °C 1012.8 hPa Calm   5.6 km/h 56 % 0 mm
23:10 10.7 °C 2.5 °C 1012.8 hPa SE 1 km/h 6.4 km/h 57 % 0 mm
23:15 10.7 °C 2.2 °C 1012.4 hPa SSE 1.6 km/h 1.9 km/h 56 % 0 mm
23:20 10.7 °C 1.7 °C 1012.4 hPa SE 3.2 km/h 9.3 km/h 54 % 0 mm
23:25 10.7 °C 2.3 °C 1012.1 hPa East 5.6 km/h 7.4 km/h 56 % 0 mm
23:30 10.7 °C 2.2 °C 1011.7 hPa SE 1.4 km/h 3.7 km/h 56 % 0 mm
23:35 10.7 °C 2 °C 1011.7 hPa SE 1.9 km/h 5.6 km/h 55 % 0 mm
23:36 10.7 °C 2 °C 1011.7 hPa SE 1.1 km/h 5.6 km/h 55 % 0 mm
23:41 10.7 °C 1.7 °C 1011.7 hPa SSE 1.8 km/h 9.7 km/h 54 % 0 mm
23:46 10.7 °C 1.5 °C 1011.7 hPa SE 2.7 km/h 5.6 km/h 53 % 0 mm
23:51 10.7 °C 1.5 °C 1011.7 hPa SE 3.1 km/h 7.4 km/h 53 % 0 mm
23:56 10.7 °C 1.5 °C 1011.4 hPa SE 2.1 km/h 6.4 km/h 53 % 0 mm
Crab Meadow Weather
Compliments of Weather Underground - 3 mb

Script developed by  Jim McMurry - jmcmurry@mwt.net Adapted for the template by  Wim van der Kuil - Leuven-Template.eu

Clouds: Partly sunny and partly cloudy indicate the same amount of cloud coverage - about 50 percent. Partly sunny is used during the daytime, and partly cloudy is used at night when there is no sun.